User: anonymous   Login
Location: Baix
(44.7118°N, 4.7648°E)
Time: 06:27:59
(UTC+00:00)
Language:

SL-4 R/B - Orbit

View from above orbital plane
View from above orbital plane
View from above satellite
View from above satellite

Ground track
Ground track

The orbit data is extracted from the following two-line orbital elements,

1 39679U 14021B   20292.83538521 +.00000734 +00000-0 +53320-4 0  9993
2 39679 051.6154 254.8004 0171807 013.5317 347.0176 15.06529953357621
Epoch (UTC): 18 October 2020 20:02:57
Eccentricity: 0.0171807
inclination: 51.6154°
perigee height: 428 km
apogee height: 666 km
right ascension of ascending node: 254.8004°
argument of perigee: 13.5317°
revolutions per day: 15.06529953
mean anomaly at epoch: 347.0176°
orbit number at epoch: 35762

The dashed part of the orbit path shows where the satellite is in the earth's shadow,  

DLR